Preview of NWS' New Version of Forecast
This preview is not operational and should not be used for support decisions.
Latest weather observations around

Nogales, Nogales International Airport (KOLS)

Using English Units (Switch to International System of Units)
Date/ Time (MST) Wind (mph) Vis. (mi) Weather Sky Cond. Temp (°F) Rel. Humidity Wind Chill (°F) Heat Index (°F) Pressure Precip. (in)
Air Dwpt 6 hour Altimeter (inHg) Sea level (inHg) 1 hr 3 hr 6 hr
Max Min
Jun 24 10:54 S 8 10 Clear CLR 96 15     5%   89 30.02 29.79      
Jun 24 09:54 SW 5 10 Clear CLR 87 20     8%   83 30.03 29.82      
Jun 24 08:54 SSW 5 10 Clear CLR 81 25     13%   79 30.04 29.83      
Jun 24 07:54 Calm 10 Clear CLR 73 24     16%   71 30.05 29.84      
Jun 24 06:54 Calm 10 Clear CLR 66 25     21%     30.03 29.83      
Jun 24 05:54 Calm 10 Clear CLR 56 24     29%     30.03 29.84      
Jun 24 04:54 Calm 10 Clear CLR 57 23     27%     30.01 29.82      
Jun 24 03:54 Calm 10 Clear CLR 58 24     27%     30 29.81      
Jun 24 02:54 NE 3 10 Clear CLR 62 23     22%     30 29.79      
Jun 24 01:54 E 5 10 Clear CLR 63 23     22%     30 29.8      
Jun 24 00:54 Calm 10 Clear CLR 63 19     18%     30.02 29.81      
Jun 23 23:54 ENE 3 10 Clear CLR 67 16     14%     30.02 29.82      
Jun 23 22:54 E 7 10 Clear CLR 68 15     13%     30.03 29.83      
Jun 23 21:54 E 6 10 Clear CLR 69 15     12%     30.02 29.82      
Jun 23 20:54 E 3 10 Clear CLR 72 15     11%   69 30.01 29.81      
Jun 23 19:54 W 3 10 Clear CLR 80 13     8%   78 29.99 29.79      
Jun 23 18:54 W 8 10 Clear CLR 86        %     29.98 29.79      
Jun 23 17:54 W 10 10 Clear CLR 89        %     29.98 29.79      
Jun 23 16:54 6 10 Clear CLR 90 11     5%   84 29.98 29.78     0
Jun 23 15:54   10 Clear CLR 91 11     5%   85 29.99 29.79      
Jun 23 14:54 W 9 10 Clear CLR 91        %     30 29.8      
Jun 23 13:54   10 Clear CLR 89 15     6%   84 30.01 29.82   0  
Jun 23 12:54 7 10 Clear CLR 89 22     9%   84 30.03 29.83      
Jun 23 11:54 5 10 Clear CLR 86 18     8%   82 30.04 29.84 0    
Jun 23 10:54 6 10 Light Rain CLR 84 27     13%   81 30.06 29.85 0   0
Jun 23 09:54 5 10 Light Rain CLR 82 25     12%   80 30.07 29.86 0    
Jun 23 08:54 SSE 7 10 Light Rain CLR 79 34     20%   77 30.07 29.86 0    
Jun 23 07:54 3 10 Clear CLR 73 38     28%   71 30.07 29.87      
Jun 23 06:54 S 3 10 Clear CLR 64 38     38%     30.06 29.87      
Jun 23 05:54 ENE 3 10 Clear CLR 57 36     45%     30.05 29.87      
Jun 23 04:54 ENE 3 10 Clear CLR 57 36     45%     30.04 29.85      
Jun 23 03:54 Calm 10 Clear CLR 59 38     45%     30.03 29.83      
Jun 23 02:54 E 7 10 Clear   61 38     42%     30.03 29.82      
Jun 23 01:54 E 7 10 Clear CLR 61 40     46%     30.03 29.83      
Jun 23 00:54 ENE 5 10 Clear CLR 64 40     41%     30.03 29.83      
Jun 22 23:54 Calm 10 Clear CLR 66 39     37%     30.04 29.83      
Jun 22 22:54 Calm 10 Clear CLR 69 40     35%     30.04 29.82     0
Jun 22 21:54 W 6 10 Clear CLR 74 40     29%   72 30.03 29.81      
Jun 22 20:54 W 5 10 Clear CLR 76 38     25%   74 30 29.79 0    
Jun 22 19:54 W 8 10 Light Rain CLR 80 38     22%   79 29.98 29.76 0 0  
Jun 22 18:54 WSW 15 10 Light Rain CLR 84 36     18%   81 29.96 29.75 0    
Jun 22 17:54 SSW 16 10 Clear CLR 88 26     11%   84 29.94 29.75      
Jun 22 16:54 SSW 20 10 Clear and Windy CLR 89 22     9%   84 29.95 29.74     0
Jun 22 15:54 SSW 15 10 Clear CLR 91        %     29.95 29.73      
Jun 22 14:54 SSW 14 10 Clear CLR 92        %     29.96 29.75 0    
Jun 22 13:54 SW 9 10 Light Rain CLR 90        %     29.97 29.75 0 0  
Jun 22 12:54   10 Light Rain CLR 90        %     29.98 29.76 0    
Jun 22 12:24 SSW 14 10 Light Rain CLR 91 19     7%   86 29.99   0    
Jun 22 11:54 SSW 11 10 Clear CLR 89 21     8%   84 29.99 29.77      
Jun 22 10:54 S 15 10 Clear CLR 88 26     11%   84 30 29.78      
Jun 22 09:54 S 10 10 Clear CLR 85 26     12%   82 30 29.78      
Jun 22 08:54 SSW 14 10 Clear CLR 82 28     14%   80 30 29.78      
Jun 22 07:54 SSE 10 10 Clear CLR 78 30     17%   76 30 29.78      
Jun 22 06:54 SSE 3 10 Clear CLR 69 35     29%     29.99 29.78      
Jun 22 05:54 Calm 10 Clear CLR 61 34     36%     29.98 29.78      
Jun 22 04:54 S 7 10 Clear CLR 62 34     35%     29.97 29.77      
Jun 22 03:54 SSW 7 10 Clear CLR 68 35     30%     29.96 29.74      
Jun 22 02:54 SSE 7 10 Clear CLR 66 35     32%     29.96 29.74      
Jun 22 01:54 Calm 10 Clear CLR 68 35     30%     29.96 29.74      
Jun 22 00:54 S 7 10 Clear CLR 69 35     29%     29.96 29.74      
Jun 21 23:54 S 6 10 Clear CLR 70 35     28%     29.97 29.75      
Jun 21 22:54 SSW 7 10 Clear CLR 74 35     24%   72 29.97 29.74      
Jun 21 21:54 S 3 10 Clear CLR 76 34     22%   74 29.96 29.74      
Jun 21 20:54 SSW 8 10 Clear CLR 78 31     18%   76 29.95 29.72      
Jun 21 19:54 SW 8 10 Clear CLR 82 24     12%   80 29.93 29.7      
Jun 21 18:54 SW 13 10 Clear CLR 87 20     8%   83 29.91 29.7      
Jun 21 17:54 SSW 16 10 Clear CLR 89 15     6%   84 29.91 29.72      
Jun 21 16:54 SSW 16 10 Clear CLR 91 18     7%   86 29.91 29.71      
Jun 21 15:54 SSW 17 10 Clear CLR 93        %     29.93 29.72      
Jun 21 14:54 SW 11 10 Clear CLR 93 9     4%   87 29.94 29.72      
Jun 21 13:54 SW 17 10 Clear CLR 91 7     4%   85 29.96 29.75      
May 12 09:54 S 23 10 Clear and Windy CLR 80 25     13%   78 29.99 29.79      
May 11 19:54 S 15 10 Clear CLR 79 37     22%   78 29.91 29.7      
Jun 11 05:54 SE 9 10 Clear CLR 68 25     20%     29.95        
Jun 10 19:54 S 10 10 Clear CLR 82        %     29.91 29.69      
Jun 09 14:54   10 Clear CLR 98 35     11%   93 29.94 29.71      
Jun 08 17:54 SSE 7 10 Clear CLR 93 37     14%   89 29.95 29.73      
Jun 08 14:54 W 11 10 Clear CLR 96 34     11%   91 29.99 29.76      
Jun 08 05:54 Calm 10 Clear CLR 69 51     53%     30.08 29.9      
Jun 08 04:54 Calm 10 Clear CLR 66 53     63%     30.07 29.87      
Jun 06 03:54 Calm 10 Clear CLR 68 41     37%     30.02 29.78      
Jun 06 01:54 SSE 6 10 Clear CLR 74 43     33%   73 30.01 29.76